Вернуться в каталог

HULIANWANG DIGUI-106

АктивенСвязьLEO
NORAD 66916·PAYLOAD·🇨🇳 China

Запущен Dec 6, 2025 с Wenchang Space Launch Site

Loading…

Ближайшие Пролёты (ближайшие 24 часа)

TLE

СвежийSource: Space-Track

Эпоха: Sep 14, 2026, 04:19 UTC

1 66916U 25285B   26257.18031045 -.00000089  00000-0  75546-4 0  9993
2 66916  50.0056 187.0047 0000212 227.6688 132.4166 13.29325658 37891

Отслеживайте HULIANWANG DIGUI-106 в реальном времени с AllMySat

Download on the App Store